Regional Weather Roundup
Issued by NWS

Home | Current Version | Previous Version | Text Only | Print | Product List | Glossary Off
Versions: 1 2 3 4 5 6 7 8 9 10 11 12 13 14 15 16 17 18 19 20 21 22 23 24 25 26 27 28 29 30 31 32 33 34 35 36 37 38 39 40 41 42 43 44 45 46 47 48 49 50

000
ASUS43 KBIS 172301
RWRND

NORTH DAKOTA REGIONAL WEATHER ROUNDUP
NATIONAL WEATHER SERVICE BISMARCK ND
600 PM CDT FRI APR 17 2015

NOTE: "FAIR" INDICATES FEW OR NO CLOUDS BELOW 12,000 FEET WITH NO
SIGNIFICANT WEATHER AND/OR OBSTRUCTIONS TO VISIBILITY.


NDZ001>003-009>011-017-180000-
NORTHWEST NORTH DAKOTA

CITY           SKY/WX    TMP DP  RH WIND       PRES   REMARKS
WILLISTON      SUNNY     70  25  18 N9        30.07F
MINOT          SUNNY     66  27  23 N16G24    30.07F
MINOT AFB      SUNNY     65  28  24 NE15      30.07F
$$

NDZ018>021-031>035-040>046-180000-
SOUTHWEST NORTH DAKOTA

CITY           SKY/WX    TMP DP  RH WIND       PRES   REMARKS
BISMARCK       PTSUNNY   72  25  17 VRB5      30.06F
DICKINSON      MOSUNNY   69  18  14 E7        30.07F
GARRISON         N/A     71  26  18 NE10G20   30.07S
HETTINGER ARPT MOSUNNY   67  21  17 CALM      30.09F
$$

NDZ004>008-012>016-024-026-027-054-180000-
NORTHEAST NORTH DAKOTA

CITY           SKY/WX    TMP DP  RH WIND       PRES   REMARKS
GRAND FORKS    SUNNY     69  30  23 N25G31    30.01R
GRND FRKS AFB  SUNNY     70  31  23 NE25G32   30.02R
DEVILS LAKE    SUNNY     68  21  17 N16G25    30.05S
$$

NDZ022-023-025-028>030-036>039-047>053-180000-
SOUTHEAST NORTH DAKOTA

CITY           SKY/WX    TMP DP  RH WIND       PRES   REMARKS
FARGO          SUNNY     76  17  11 NW7       30.01F
JAMESTOWN      MOSUNNY   74  22  14 N8        30.02F
$$




USA.gov is the U.S. government's official web portal to all federal, state and local government web resources and services.